Year,Month,Day,Hour,Minute,Value (Times are PST for insolation in W/m^2)
2009,02,23,00,00,0.00
2009,02,23,00,01,0.00
2009,02,23,00,02,0.00
2009,02,23,00,03,0.00
2009,02,23,00,04,0.00
2009,02,23,00,05,0.00
2009,02,23,00,06,0.00
2009,02,23,00,07,0.00
2009,02,23,00,08,0.00
2009,02,23,00,09,0.00
2009,02,23,00,10,0.00
2009,02,23,00,11,0.00
2009,02,23,00,12,0.00
2009,02,23,00,13,0.00
2009,02,23,00,14,0.00
2009,02,23,00,15,0.00
2009,02,23,00,16,0.00
2009,02,23,00,17,0.00
2009,02,23,00,18,0.00
2009,02,23,00,19,0.00
2009,02,23,00,20,0.00
2009,02,23,00,21,0.00
2009,02,23,00,22,0.00
2009,02,23,00,23,0.00
2009,02,23,00,24,0.00
2009,02,23,00,25,0.00
2009,02,23,00,26,0.00
2009,02,23,00,27,0.00
2009,02,23,00,28,0.00
2009,02,23,00,29,0.00
2009,02,23,00,30,0.00
2009,02,23,00,31,0.00
2009,02,23,00,32,0.00
2009,02,23,00,33,0.00
2009,02,23,00,34,0.00
2009,02,23,00,35,0.00
2009,02,23,00,36,0.00
2009,02,23,00,37,0.00
2009,02,23,00,38,0.00
2009,02,23,00,39,0.00
2009,02,23,00,40,0.00
2009,02,23,00,41,0.00
2009,02,23,00,42,0.00
2009,02,23,00,43,0.00
2009,02,23,00,44,0.00
2009,02,23,00,45,0.00
2009,02,23,00,46,0.00
2009,02,23,00,47,0.00
2009,02,23,00,48,0.00
2009,02,23,00,49,0.00
2009,02,23,00,50,0.00
2009,02,23,00,51,0.00
2009,02,23,00,52,0.00
2009,02,23,00,53,0.00
2009,02,23,00,54,0.00
2009,02,23,00,55,0.00
2009,02,23,00,56,0.00
2009,02,23,00,57,0.00
2009,02,23,00,58,0.00
2009,02,23,00,59,0.00
2009,02,23,01,00,0.00
2009,02,23,01,01,0.00
2009,02,23,01,02,0.00
2009,02,23,01,03,0.00
2009,02,23,01,04,0.00
2009,02,23,01,05,0.00
2009,02,23,01,06,0.00
2009,02,23,01,07,0.00
2009,02,23,01,08,0.00
2009,02,23,01,09,0.00
2009,02,23,01,10,0.00
2009,02,23,01,11,0.00
2009,02,23,01,12,0.00
2009,02,23,01,13,0.00
2009,02,23,01,14,0.00
2009,02,23,01,15,0.00
2009,02,23,01,16,0.00
2009,02,23,01,17,0.00
2009,02,23,01,18,0.00
2009,02,23,01,19,0.00
2009,02,23,01,20,0.00
2009,02,23,01,21,0.00
2009,02,23,01,22,0.00
2009,02,23,01,23,0.00
2009,02,23,01,24,0.00
2009,02,23,01,25,0.00
2009,02,23,01,26,0.00
2009,02,23,01,27,0.00
2009,02,23,01,28,0.00
2009,02,23,01,29,0.00
2009,02,23,01,30,0.00
2009,02,23,01,31,0.00
2009,02,23,01,32,0.00
2009,02,23,01,33,0.00
2009,02,23,01,34,0.00
2009,02,23,01,35,0.00
2009,02,23,01,36,0.00
2009,02,23,01,37,0.00
2009,02,23,01,38,0.00
2009,02,23,01,39,0.00
2009,02,23,01,40,0.00
2009,02,23,01,41,0.00
2009,02,23,01,42,0.00
2009,02,23,01,43,0.00
2009,02,23,01,44,0.00
2009,02,23,01,45,0.00
2009,02,23,01,46,0.00
2009,02,23,01,47,0.00
2009,02,23,01,48,0.00
2009,02,23,01,49,0.00
2009,02,23,01,50,0.00
2009,02,23,01,51,0.00
2009,02,23,01,52,0.00
2009,02,23,01,53,0.00
2009,02,23,01,54,0.00
2009,02,23,01,55,0.00
2009,02,23,01,56,0.00
2009,02,23,01,57,0.00
2009,02,23,01,58,0.00
2009,02,23,01,59,0.00
2009,02,23,02,00,0.00
2009,02,23,02,01,0.00
2009,02,23,02,02,0.00
2009,02,23,02,03,0.00
2009,02,23,02,04,0.00
2009,02,23,02,05,0.00
2009,02,23,02,06,0.00
2009,02,23,02,07,0.00
2009,02,23,02,08,0.00
2009,02,23,02,09,0.00
2009,02,23,02,10,0.00
2009,02,23,02,11,0.00
2009,02,23,02,12,0.00
2009,02,23,02,13,0.00
2009,02,23,02,14,0.00
2009,02,23,02,15,0.00
2009,02,23,02,16,0.00
2009,02,23,02,17,0.00
2009,02,23,02,18,0.00
2009,02,23,02,19,0.00
2009,02,23,02,20,0.00
2009,02,23,02,21,0.00
2009,02,23,02,22,0.00
2009,02,23,02,23,0.00
2009,02,23,02,24,0.00
2009,02,23,02,25,0.00
2009,02,23,02,26,0.00
2009,02,23,02,27,0.00
2009,02,23,02,28,0.00
2009,02,23,02,29,0.00
2009,02,23,02,30,0.00
2009,02,23,02,31,0.00
2009,02,23,02,32,0.00
2009,02,23,02,33,0.00
2009,02,23,02,34,0.00
2009,02,23,02,35,0.00
2009,02,23,02,36,0.00
2009,02,23,02,37,0.00
2009,02,23,02,38,0.00
2009,02,23,02,39,0.00
2009,02,23,02,40,0.00
2009,02,23,02,41,0.00
2009,02,23,02,42,0.00
2009,02,23,02,43,0.00
2009,02,23,02,44,0.00
2009,02,23,02,45,0.00
2009,02,23,02,46,0.00
2009,02,23,02,47,0.00
2009,02,23,02,48,0.00
2009,02,23,02,49,0.00
2009,02,23,02,50,0.00
2009,02,23,02,51,0.00
2009,02,23,02,52,0.00
2009,02,23,02,53,0.00
2009,02,23,02,54,0.00
2009,02,23,02,55,0.00
2009,02,23,02,56,0.00
2009,02,23,02,57,0.00
2009,02,23,02,58,0.00
2009,02,23,02,59,0.00
2009,02,23,03,00,0.00
2009,02,23,03,01,0.00
2009,02,23,03,02,0.00
2009,02,23,03,03,0.00
2009,02,23,03,04,0.00
2009,02,23,03,05,0.00
2009,02,23,03,06,0.00
2009,02,23,03,07,0.00
2009,02,23,03,08,0.00
2009,02,23,03,09,0.00
2009,02,23,03,10,0.00
2009,02,23,03,11,0.00
2009,02,23,03,12,0.00
2009,02,23,03,13,0.00
2009,02,23,03,14,0.00
2009,02,23,03,15,0.00
2009,02,23,03,16,0.00
2009,02,23,03,17,0.00
2009,02,23,03,18,0.00
2009,02,23,03,19,0.00
2009,02,23,03,20,0.00
2009,02,23,03,21,0.00
2009,02,23,03,22,0.00
2009,02,23,03,23,0.00
2009,02,23,03,24,0.00
2009,02,23,03,25,0.00
2009,02,23,03,26,0.00
2009,02,23,03,27,0.00
2009,02,23,03,28,0.00
2009,02,23,03,29,0.00
2009,02,23,03,30,0.00
2009,02,23,03,31,0.00
2009,02,23,03,32,0.00
2009,02,23,03,33,0.00
2009,02,23,03,34,0.00
2009,02,23,03,35,0.00
2009,02,23,03,36,0.00
2009,02,23,03,37,0.00
2009,02,23,03,38,0.00
2009,02,23,03,39,0.00
2009,02,23,03,40,0.00
2009,02,23,03,41,0.00
2009,02,23,03,42,0.00
2009,02,23,03,43,0.00
2009,02,23,03,44,0.00
2009,02,23,03,45,0.00
2009,02,23,03,46,0.00
2009,02,23,03,47,0.00
2009,02,23,03,48,0.00
2009,02,23,03,49,0.00
2009,02,23,03,50,0.00
2009,02,23,03,51,0.00
2009,02,23,03,52,0.00
2009,02,23,03,53,0.00
2009,02,23,03,54,0.00
2009,02,23,03,55,0.00
2009,02,23,03,56,0.00
2009,02,23,03,57,0.00
2009,02,23,03,58,0.00
2009,02,23,03,59,0.00
2009,02,23,04,00,0.00
2009,02,23,04,01,0.00
2009,02,23,04,02,0.00
2009,02,23,04,03,0.00
2009,02,23,04,04,0.00
2009,02,23,04,05,0.00
2009,02,23,04,06,0.00
2009,02,23,04,07,0.00
2009,02,23,04,08,0.00
2009,02,23,04,09,0.00
2009,02,23,04,10,0.00
2009,02,23,04,11,0.00
2009,02,23,04,12,0.00
2009,02,23,04,13,0.00
2009,02,23,04,14,0.00
2009,02,23,04,15,0.00
2009,02,23,04,16,0.00
2009,02,23,04,17,0.00
2009,02,23,04,18,0.00
2009,02,23,04,19,0.00
2009,02,23,04,20,0.00
2009,02,23,04,21,0.00
2009,02,23,04,22,0.00
2009,02,23,04,23,0.00
2009,02,23,04,24,0.00
2009,02,23,04,25,0.00
2009,02,23,04,26,0.00
2009,02,23,04,27,0.00
2009,02,23,04,28,0.00
2009,02,23,04,29,0.00
2009,02,23,04,30,0.00
2009,02,23,04,31,0.00
2009,02,23,04,32,0.00
2009,02,23,04,33,0.00
2009,02,23,04,34,0.00
2009,02,23,04,35,0.00
2009,02,23,04,36,0.00
2009,02,23,04,37,0.00
2009,02,23,04,38,0.00
2009,02,23,04,39,0.00
2009,02,23,04,40,0.00
2009,02,23,04,41,0.00
2009,02,23,04,42,0.00
2009,02,23,04,43,0.00
2009,02,23,04,44,0.00
2009,02,23,04,45,0.00
2009,02,23,04,46,0.00
2009,02,23,04,47,0.00
2009,02,23,04,48,0.00
2009,02,23,04,49,0.00
2009,02,23,04,50,0.00
2009,02,23,04,51,0.00
2009,02,23,04,52,0.00
2009,02,23,04,53,0.00
2009,02,23,04,54,0.00
2009,02,23,04,55,0.00
2009,02,23,04,56,0.00
2009,02,23,04,57,0.00
2009,02,23,04,58,0.00
2009,02,23,04,59,0.00
2009,02,23,05,00,0.00
2009,02,23,05,01,0.00
2009,02,23,05,02,0.00
2009,02,23,05,03,0.00
2009,02,23,05,04,0.00
2009,02,23,05,05,0.00
2009,02,23,05,06,0.00
2009,02,23,05,07,0.00
2009,02,23,05,08,0.00
2009,02,23,05,09,0.00
2009,02,23,05,10,0.00
2009,02,23,05,11,0.00
2009,02,23,05,12,0.00
2009,02,23,05,13,0.00
2009,02,23,05,14,0.00
2009,02,23,05,15,0.00
2009,02,23,05,16,0.00
2009,02,23,05,17,0.00
2009,02,23,05,18,0.00
2009,02,23,05,19,0.00
2009,02,23,05,20,0.00
2009,02,23,05,21,0.00
2009,02,23,05,22,0.00
2009,02,23,05,23,0.00
2009,02,23,05,24,0.00
2009,02,23,05,25,0.00
2009,02,23,05,26,0.00
2009,02,23,05,27,0.00
2009,02,23,05,28,0.00
2009,02,23,05,29,0.00
2009,02,23,05,30,0.00
2009,02,23,05,31,0.00
2009,02,23,05,32,0.00
2009,02,23,05,33,0.00
2009,02,23,05,34,0.00
2009,02,23,05,35,0.00
2009,02,23,05,36,0.00
2009,02,23,05,37,0.00
2009,02,23,05,38,0.00
2009,02,23,05,39,0.00
2009,02,23,05,40,0.00
2009,02,23,05,41,0.00
2009,02,23,05,42,0.00
2009,02,23,05,43,0.00
2009,02,23,05,44,0.00
2009,02,23,05,45,0.00
2009,02,23,05,46,0.00
2009,02,23,05,47,0.00
2009,02,23,05,48,0.00
2009,02,23,05,49,0.00
2009,02,23,05,50,0.00
2009,02,23,05,51,0.00
2009,02,23,05,52,0.00
2009,02,23,05,53,0.00
2009,02,23,05,54,0.00
2009,02,23,05,55,0.00
2009,02,23,05,56,0.00
2009,02,23,05,57,0.00
2009,02,23,05,58,0.00
2009,02,23,05,59,0.00
2009,02,23,06,00,0.00
2009,02,23,06,01,0.00
2009,02,23,06,02,0.00
2009,02,23,06,03,0.00
2009,02,23,06,04,0.00
2009,02,23,06,05,0.00
2009,02,23,06,06,0.00
2009,02,23,06,07,0.00
2009,02,23,06,08,0.00
2009,02,23,06,09,0.00
2009,02,23,06,10,0.00
2009,02,23,06,11,0.00
2009,02,23,06,12,0.00
2009,02,23,06,13,0.00
2009,02,23,06,14,0.00
2009,02,23,06,15,0.00
2009,02,23,06,16,0.00
2009,02,23,06,17,0.00
2009,02,23,06,18,0.00
2009,02,23,06,19,0.00
2009,02,23,06,20,0.00
2009,02,23,06,21,0.00
2009,02,23,06,22,0.00
2009,02,23,06,23,0.00
2009,02,23,06,24,0.00
2009,02,23,06,25,0.00
2009,02,23,06,26,0.00
2009,02,23,06,27,0.00
2009,02,23,06,28,0.00
2009,02,23,06,29,0.00
2009,02,23,06,30,0.00
2009,02,23,06,31,0.00
2009,02,23,06,32,0.00
2009,02,23,06,33,0.00
2009,02,23,06,34,0.00
2009,02,23,06,35,0.00
2009,02,23,06,36,0.00
2009,02,23,06,37,0.00
2009,02,23,06,38,0.00
2009,02,23,06,39,0.00
2009,02,23,06,40,0.00
2009,02,23,06,41,0.00
2009,02,23,06,42,0.00
2009,02,23,06,43,0.00
2009,02,23,06,44,0.00
2009,02,23,06,45,0.00
2009,02,23,06,46,0.00
2009,02,23,06,47,0.00
2009,02,23,06,48,0.00
2009,02,23,06,49,0.00
2009,02,23,06,50,0.00
2009,02,23,06,51,0.00
2009,02,23,06,52,0.00
2009,02,23,06,53,0.00
2009,02,23,06,54,0.00
2009,02,23,06,55,0.00
2009,02,23,06,56,0.00
2009,02,23,06,57,0.00
2009,02,23,06,58,0.00
2009,02,23,06,59,0.00
2009,02,23,07,00,0.00
2009,02,23,07,01,0.00
2009,02,23,07,02,0.00
2009,02,23,07,03,0.00
2009,02,23,07,04,0.00
2009,02,23,07,05,0.00
2009,02,23,07,06,0.00
2009,02,23,07,07,0.00
2009,02,23,07,08,0.00
2009,02,23,07,09,0.00
2009,02,23,07,10,0.00
2009,02,23,07,11,0.00
2009,02,23,07,12,0.00
2009,02,23,07,13,0.00
2009,02,23,07,14,0.00
2009,02,23,07,15,0.00
2009,02,23,07,16,0.00
2009,02,23,07,17,0.00
2009,02,23,07,18,0.00
2009,02,23,07,19,0.00
2009,02,23,07,20,0.00
2009,02,23,07,21,0.00
2009,02,23,07,22,0.00
2009,02,23,07,23,3.90
2009,02,23,07,24,5.10
2009,02,23,07,25,7.00
2009,02,23,07,26,7.00
2009,02,23,07,27,7.90
2009,02,23,07,28,9.00
2009,02,23,07,29,9.00
2009,02,23,07,30,10.70
2009,02,23,07,31,9.00
2009,02,23,07,32,8.40
2009,02,23,07,33,7.00
2009,02,23,07,34,8.30
2009,02,23,07,35,9.00
2009,02,23,07,36,10.90
2009,02,23,07,37,11.00
2009,02,23,07,38,10.30
2009,02,23,07,39,8.10
2009,02,23,07,40,7.00
2009,02,23,07,41,8.60
2009,02,23,07,42,9.00
2009,02,23,07,43,8.50
2009,02,23,07,44,7.00
2009,02,23,07,45,5.90
2009,02,23,07,46,5.00
2009,02,23,07,47,5.00
2009,02,23,07,48,5.00
2009,02,23,07,49,5.50
2009,02,23,07,50,7.00
2009,02,23,07,51,5.90
2009,02,23,07,52,5.00
2009,02,23,07,53,5.00
2009,02,23,07,54,5.00
2009,02,23,07,55,5.00
2009,02,23,07,56,5.90
2009,02,23,07,57,7.00
2009,02,23,07,58,7.00
2009,02,23,07,59,7.00
2009,02,23,08,00,7.30
2009,02,23,08,01,9.00
2009,02,23,08,02,9.00
2009,02,23,08,03,9.00
2009,02,23,08,04,9.00
2009,02,23,08,05,9.00
2009,02,23,08,06,9.30
2009,02,23,08,07,11.00
2009,02,23,08,08,11.50
2009,02,23,08,09,12.00
2009,02,23,08,10,12.00
2009,02,23,08,11,12.10
2009,02,23,08,12,13.60
2009,02,23,08,13,11.70
2009,02,23,08,14,11.00
2009,02,23,08,15,11.60
2009,02,23,08,16,13.60
2009,02,23,08,17,15.90
2009,02,23,08,18,16.00
2009,02,23,08,19,16.80
2009,02,23,08,20,18.00
2009,02,23,08,21,18.70
2009,02,23,08,22,20.60
2009,02,23,08,23,21.20
2009,02,23,08,24,23.80
2009,02,23,08,25,26.00
2009,02,23,08,26,25.50
2009,02,23,08,27,25.00
2009,02,23,08,28,25.90
2009,02,23,08,29,28.00
2009,02,23,08,30,28.00
2009,02,23,08,31,28.00
2009,02,23,08,32,29.10
2009,02,23,08,33,30.00
2009,02,23,08,34,31.70
2009,02,23,08,35,33.30
2009,02,23,08,36,35.00
2009,02,23,08,37,34.10
2009,02,23,08,38,34.20
2009,02,23,08,39,36.40
2009,02,23,08,40,37.00
2009,02,23,08,41,37.50
2009,02,23,08,42,40.70
2009,02,23,08,43,41.10
2009,02,23,08,44,35.90
2009,02,23,08,45,32.20
2009,02,23,08,46,32.00
2009,02,23,08,47,32.00
2009,02,23,08,48,33.60
2009,02,23,08,49,36.10
2009,02,23,08,50,33.10
2009,02,23,08,51,30.50
2009,02,23,08,52,29.80
2009,02,23,08,53,26.80
2009,02,23,08,54,31.00
2009,02,23,08,55,36.50
2009,02,23,08,56,46.00
2009,02,23,08,57,54.50
2009,02,23,08,58,59.80
2009,02,23,08,59,60.70
2009,02,23,09,00,66.40
2009,02,23,09,01,77.50
2009,02,23,09,02,85.00
2009,02,23,09,03,87.60
2009,02,23,09,04,83.70
2009,02,23,09,05,79.00
2009,02,23,09,06,80.60
2009,02,23,09,07,84.60
2009,02,23,09,08,92.00
2009,02,23,09,09,105.20
2009,02,23,09,10,122.20
2009,02,23,09,11,129.50
2009,02,23,09,12,128.90
2009,02,23,09,13,141.50
2009,02,23,09,14,139.40
2009,02,23,09,15,126.30
2009,02,23,09,16,125.00
2009,02,23,09,17,125.00
2009,02,23,09,18,125.00
2009,02,23,09,19,123.80
2009,02,23,09,20,124.40
2009,02,23,09,21,127.70
2009,02,23,09,22,134.50
2009,02,23,09,23,137.00
2009,02,23,09,24,137.00
2009,02,23,09,25,137.00
2009,02,23,09,26,138.50
2009,02,23,09,27,144.00
2009,02,23,09,28,154.40
2009,02,23,09,29,161.70
2009,02,23,09,30,167.90
2009,02,23,09,31,171.00
2009,02,23,09,32,166.60
2009,02,23,09,33,160.00
2009,02,23,09,34,149.30
2009,02,23,09,35,143.00
2009,02,23,09,36,138.00
2009,02,23,09,37,129.80
2009,02,23,09,38,119.60
2009,02,23,09,39,110.50
2009,02,23,09,40,100.90
2009,02,23,09,41,97.00
2009,02,23,09,42,98.50
2009,02,23,09,43,104.80
2009,02,23,09,44,112.80
2009,02,23,09,45,119.70
2009,02,23,09,46,119.10
2009,02,23,09,47,116.70
2009,02,23,09,48,125.30
2009,02,23,09,49,143.60
2009,02,23,09,50,154.90
2009,02,23,09,51,154.80
2009,02,23,09,52,153.50
2009,02,23,09,53,154.20
2009,02,23,09,54,151.90
2009,02,23,09,55,148.90
2009,02,23,09,56,150.50
2009,02,23,09,57,161.60
2009,02,23,09,58,171.00
2009,02,23,09,59,169.10
2009,02,23,10,00,167.00
2009,02,23,10,01,167.00
2009,02,23,10,02,168.80
2009,02,23,10,03,166.30
2009,02,23,10,04,162.70
2009,02,23,10,05,162.50
2009,02,23,10,06,162.40
2009,02,23,10,07,162.00
2009,02,23,10,08,162.00
2009,02,23,10,09,162.00
2009,02,23,10,10,162.30
2009,02,23,10,11,164.90
2009,02,23,10,12,167.00
2009,02,23,10,13,164.00
2009,02,23,10,14,160.30
2009,02,23,10,15,160.00
2009,02,23,10,16,162.40
2009,02,23,10,17,171.70
2009,02,23,10,18,181.60
2009,02,23,10,19,191.40
2009,02,23,10,20,199.30
2009,02,23,10,21,205.50
2009,02,23,10,22,204.00
2009,02,23,10,23,213.40
2009,02,23,10,24,226.50
2009,02,23,10,25,229.00
2009,02,23,10,26,257.20
2009,02,23,10,27,265.80
2009,02,23,10,28,274.50
2009,02,23,10,29,273.30
2009,02,23,10,30,271.70
2009,02,23,10,31,308.90
2009,02,23,10,32,323.90
2009,02,23,10,33,333.50
2009,02,23,10,34,355.30
2009,02,23,10,35,379.50
2009,02,23,10,36,401.70
2009,02,23,10,37,440.70
2009,02,23,10,38,493.40
2009,02,23,10,39,521.00
2009,02,23,10,40,531.80
2009,02,23,10,41,503.00
2009,02,23,10,42,485.00
2009,02,23,10,43,428.00
2009,02,23,10,44,409.50
2009,02,23,10,45,339.70
2009,02,23,10,46,315.50
2009,02,23,10,47,329.00
2009,02,23,10,48,344.30
2009,02,23,10,49,351.50
2009,02,23,10,50,354.80
2009,02,23,10,51,348.50
2009,02,23,10,52,350.30
2009,02,23,10,53,348.40
2009,02,23,10,54,336.50
2009,02,23,10,55,282.20
2009,02,23,10,56,297.00
2009,02,23,10,57,278.50
2009,02,23,10,58,248.40
2009,02,23,10,59,258.90
2009,02,23,11,00,262.40
2009,02,23,11,01,250.50
2009,02,23,11,02,238.80
2009,02,23,11,03,224.80
2009,02,23,11,04,227.50
2009,02,23,11,05,221.60
2009,02,23,11,06,215.20
2009,02,23,11,07,217.60
2009,02,23,11,08,215.50
2009,02,23,11,09,214.00
2009,02,23,11,10,214.00
2009,02,23,11,11,214.00
2009,02,23,11,12,215.60
2009,02,23,11,13,218.20
2009,02,23,11,14,220.90
2009,02,23,11,15,224.70
2009,02,23,11,16,230.10
2009,02,23,11,17,232.00
2009,02,23,11,18,230.30
2009,02,23,11,19,226.70
2009,02,23,11,20,224.40
2009,02,23,11,21,222.10
2009,02,23,11,22,220.40
2009,02,23,11,23,220.00
2009,02,23,11,24,220.90
2009,02,23,11,25,223.00
2009,02,23,11,26,223.60
2009,02,23,11,27,225.90
2009,02,23,11,28,227.00
2009,02,23,11,29,227.00
2009,02,23,11,30,229.90
2009,02,23,11,31,235.70
2009,02,23,11,32,233.40
2009,02,23,11,33,231.10
2009,02,23,11,34,232.40
2009,02,23,11,35,234.00
2009,02,23,11,36,232.20
2009,02,23,11,37,234.40
2009,02,23,11,38,236.00
2009,02,23,11,39,235.00
2009,02,23,11,40,232.80
2009,02,23,11,41,230.40
2009,02,23,11,42,226.90
2009,02,23,11,43,222.30
2009,02,23,11,44,217.70
2009,02,23,11,45,212.40
2009,02,23,11,46,209.60
2009,02,23,11,47,206.50
2009,02,23,11,48,205.80
2009,02,23,11,49,204.00
2009,02,23,11,50,204.80
2009,02,23,11,51,206.00
2009,02,23,11,52,208.10
2009,02,23,11,53,212.40
2009,02,23,11,54,215.90
2009,02,23,11,55,215.50
2009,02,23,11,56,213.60
2009,02,23,11,57,209.50
2009,02,23,11,58,203.50
2009,02,23,11,59,197.70
2009,02,23,12,00,191.10
2009,02,23,12,01,184.60
2009,02,23,12,02,179.70
2009,02,23,12,03,174.60
2009,02,23,12,04,169.90
2009,02,23,12,05,165.50
2009,02,23,12,06,161.70
2009,02,23,12,07,158.90
2009,02,23,12,08,155.60
2009,02,23,12,09,153.80
2009,02,23,12,10,150.10
2009,02,23,12,11,148.00
2009,02,23,12,12,144.00
2009,02,23,12,13,141.10
2009,02,23,12,14,132.60
2009,02,23,12,15,128.10
2009,02,23,12,16,122.50
2009,02,23,12,17,116.30
2009,02,23,12,18,112.30
2009,02,23,12,19,107.50
2009,02,23,12,20,103.50
2009,02,23,12,21,100.70
2009,02,23,12,22,98.40
2009,02,23,12,23,97.90
2009,02,23,12,24,97.00
2009,02,23,12,25,96.30
2009,02,23,12,26,93.90
2009,02,23,12,27,91.70
2009,02,23,12,28,91.00
2009,02,23,12,29,90.00
2009,02,23,12,30,90.00
2009,02,23,12,31,90.00
2009,02,23,12,32,90.00
2009,02,23,12,33,90.00
2009,02,23,12,34,90.80
2009,02,23,12,35,90.00
2009,02,23,12,36,90.00
2009,02,23,12,37,89.10
2009,02,23,12,38,85.60
2009,02,23,12,39,83.30
2009,02,23,12,40,79.50
2009,02,23,12,41,77.60
2009,02,23,12,42,69.20
2009,02,23,12,43,65.30
2009,02,23,12,44,62.40
2009,02,23,12,45,60.60
2009,02,23,12,46,58.20
2009,02,23,12,47,56.00
2009,02,23,12,48,56.00
2009,02,23,12,49,56.90
2009,02,23,12,50,59.20
2009,02,23,12,51,61.50
2009,02,23,12,52,64.70
2009,02,23,12,53,66.60
2009,02,23,12,54,76.20
2009,02,23,12,55,86.00
2009,02,23,12,56,99.90
2009,02,23,12,57,116.70
2009,02,23,12,58,134.40
2009,02,23,12,59,153.50
2009,02,23,13,00,169.50
2009,02,23,13,01,185.50
2009,02,23,13,02,198.50
2009,02,23,13,03,210.60
2009,02,23,13,04,221.60
2009,02,23,13,05,236.00
2009,02,23,13,06,255.60
2009,02,23,13,07,287.60
2009,02,23,13,08,322.30
2009,02,23,13,09,336.70
2009,02,23,13,10,345.30
2009,02,23,13,11,386.10
2009,02,23,13,12,481.80
2009,02,23,13,13,582.30
2009,02,23,13,14,621.00
2009,02,23,13,15,621.00
2009,02,23,13,16,377.70
2009,02,23,13,17,365.60
2009,02,23,13,18,336.00
2009,02,23,13,19,336.00
2009,02,23,13,20,336.00
2009,02,23,13,21,336.00
2009,02,23,13,22,372.90
2009,02,23,13,23,366.00
2009,02,23,13,24,305.60
2009,02,23,13,25,218.50
2009,02,23,13,26,214.00
2009,02,23,13,27,215.70
2009,02,23,13,28,222.00
2009,02,23,13,29,229.10
2009,02,23,13,30,235.40
2009,02,23,13,31,240.70
2009,02,23,13,32,246.70
2009,02,23,13,33,313.20
2009,02,23,13,34,324.90
2009,02,23,13,35,381.00
2009,02,23,13,36,381.00
2009,02,23,13,37,381.00
2009,02,23,13,38,300.80
2009,02,23,13,39,281.20
2009,02,23,13,40,274.50
2009,02,23,13,41,242.30
2009,02,23,13,42,212.70
2009,02,23,13,43,191.30
2009,02,23,13,44,186.40
2009,02,23,13,45,178.80
2009,02,23,13,46,181.00
2009,02,23,13,47,189.50
2009,02,23,13,48,194.60
2009,02,23,13,49,202.90
2009,02,23,13,50,206.80
2009,02,23,13,51,212.60
2009,02,23,13,52,211.00
2009,02,23,13,53,209.40
2009,02,23,13,54,204.20
2009,02,23,13,55,200.60
2009,02,23,13,56,199.20
2009,02,23,13,57,199.00
2009,02,23,13,58,198.50
2009,02,23,13,59,195.30
2009,02,23,14,00,190.20
2009,02,23,14,01,183.00
2009,02,23,14,02,173.30
2009,02,23,14,03,166.50
2009,02,23,14,04,163.00
2009,02,23,14,05,163.00
2009,02,23,14,06,163.00
2009,02,23,14,07,162.30
2009,02,23,14,08,160.30
2009,02,23,14,09,156.00
2009,02,23,14,10,156.00
2009,02,23,14,11,155.60
2009,02,23,14,12,155.00
2009,02,23,14,13,153.50
2009,02,23,14,14,151.10
2009,02,23,14,15,149.00
2009,02,23,14,16,149.00
2009,02,23,14,17,148.50
2009,02,23,14,18,145.50
2009,02,23,14,19,141.80
2009,02,23,14,20,139.20
2009,02,23,14,21,137.70
2009,02,23,14,22,130.30
2009,02,23,14,23,123.90
2009,02,23,14,24,116.20
2009,02,23,14,25,109.90
2009,02,23,14,26,105.30
2009,02,23,14,27,104.00
2009,02,23,14,28,104.30
2009,02,23,14,29,107.10
2009,02,23,14,30,111.80
2009,02,23,14,31,115.40
2009,02,23,14,32,117.90
2009,02,23,14,33,117.50
2009,02,23,14,34,114.90
2009,02,23,14,35,109.60
2009,02,23,14,36,103.50
2009,02,23,14,37,98.60
2009,02,23,14,38,94.60
2009,02,23,14,39,90.20
2009,02,23,14,40,86.40
2009,02,23,14,41,82.40
2009,02,23,14,42,78.10
2009,02,23,14,43,74.50
2009,02,23,14,44,71.60
2009,02,23,14,45,67.70
2009,02,23,14,46,64.10
2009,02,23,14,47,61.10
2009,02,23,14,48,58.60
2009,02,23,14,49,56.20
2009,02,23,14,50,55.70
2009,02,23,14,51,53.70
2009,02,23,14,52,53.00
2009,02,23,14,53,51.80
2009,02,23,14,54,49.50
2009,02,23,14,55,49.00
2009,02,23,14,56,48.60
2009,02,23,14,57,47.00
2009,02,23,14,58,47.00
2009,02,23,14,59,46.40
2009,02,23,15,00,46.00
2009,02,23,15,01,46.10
2009,02,23,15,02,47.00
2009,02,23,15,03,47.00
2009,02,23,15,04,47.00
2009,02,23,15,05,47.00
2009,02,23,15,06,47.00
2009,02,23,15,07,46.00
2009,02,23,15,08,43.60
2009,02,23,15,09,41.30
2009,02,23,15,10,39.50
2009,02,23,15,11,39.00
2009,02,23,15,12,37.40
2009,02,23,15,13,37.00
2009,02,23,15,14,37.00
2009,02,23,15,15,37.00
2009,02,23,15,16,37.00
2009,02,23,15,17,37.00
2009,02,23,15,18,38.70
2009,02,23,15,19,40.30
2009,02,23,15,20,42.50
2009,02,23,15,21,45.20
2009,02,23,15,22,48.10
2009,02,23,15,23,51.80
2009,02,23,15,24,55.60
2009,02,23,15,25,60.50
2009,02,23,15,26,63.00
2009,02,23,15,27,64.70
2009,02,23,15,28,68.20
2009,02,23,15,29,69.00
2009,02,23,15,30,69.00
2009,02,23,15,31,66.70
2009,02,23,15,32,64.10
2009,02,23,15,33,61.10
2009,02,23,15,34,57.60
2009,02,23,15,35,54.50
2009,02,23,15,36,53.10
2009,02,23,15,37,52.60
2009,02,23,15,38,51.70
2009,02,23,15,39,53.00
2009,02,23,15,40,53.70
2009,02,23,15,41,55.50
2009,02,23,15,42,57.90
2009,02,23,15,43,60.50
2009,02,23,15,44,62.40
2009,02,23,15,45,63.00
2009,02,23,15,46,63.00
2009,02,23,15,47,62.20
2009,02,23,15,48,59.80
2009,02,23,15,49,54.90
2009,02,23,15,50,48.90
2009,02,23,15,51,43.90
2009,02,23,15,52,38.60
2009,02,23,15,53,33.70
2009,02,23,15,54,31.80
2009,02,23,15,55,29.50
2009,02,23,15,56,28.00
2009,02,23,15,57,26.90
2009,02,23,15,58,26.00
2009,02,23,15,59,26.00
2009,02,23,16,00,26.00
2009,02,23,16,01,25.70
2009,02,23,16,02,25.00
2009,02,23,16,03,25.00
2009,02,23,16,04,25.00
2009,02,23,16,05,25.00
2009,02,23,16,06,25.00
2009,02,23,16,07,25.00
2009,02,23,16,08,25.00
2009,02,23,16,09,23.80
2009,02,23,16,10,23.00
2009,02,23,16,11,23.00
2009,02,23,16,12,23.00
2009,02,23,16,13,23.00
2009,02,23,16,14,23.00
2009,02,23,16,15,21.90
2009,02,23,16,16,21.00
2009,02,23,16,17,21.00
2009,02,23,16,18,21.00
2009,02,23,16,19,21.00
2009,02,23,16,20,21.00
2009,02,23,16,21,21.00
2009,02,23,16,22,21.00
2009,02,23,16,23,19.20
2009,02,23,16,24,19.00
2009,02,23,16,25,19.00
2009,02,23,16,26,19.00
2009,02,23,16,27,19.00
2009,02,23,16,28,19.00
2009,02,23,16,29,19.00
2009,02,23,16,30,19.00
2009,02,23,16,31,19.00
2009,02,23,16,32,19.00
2009,02,23,16,33,19.00
2009,02,23,16,34,19.00
2009,02,23,16,35,19.00
2009,02,23,16,36,18.80
2009,02,23,16,37,18.00
2009,02,23,16,38,16.90
2009,02,23,16,39,16.00
2009,02,23,16,40,14.30
2009,02,23,16,41,12.00
2009,02,23,16,42,12.00
2009,02,23,16,43,11.60
2009,02,23,16,44,11.00
2009,02,23,16,45,11.00
2009,02,23,16,46,11.00
2009,02,23,16,47,11.00
2009,02,23,16,48,11.00
2009,02,23,16,49,11.00
2009,02,23,16,50,11.00
2009,02,23,16,51,11.70
2009,02,23,16,52,12.00
2009,02,23,16,53,14.30
2009,02,23,16,54,16.00
2009,02,23,16,55,17.00
2009,02,23,16,56,18.60
2009,02,23,16,57,19.00
2009,02,23,16,58,19.00
2009,02,23,16,59,19.00
2009,02,23,17,00,18.70
2009,02,23,17,01,18.00
2009,02,23,17,02,18.00
2009,02,23,17,03,16.40
2009,02,23,17,04,16.00
2009,02,23,17,05,16.00
2009,02,23,17,06,16.00
2009,02,23,17,07,16.00
2009,02,23,17,08,16.00
2009,02,23,17,09,16.00
2009,02,23,17,10,15.80
2009,02,23,17,11,14.00
2009,02,23,17,12,14.00
2009,02,23,17,13,14.00
2009,02,23,17,14,14.00
2009,02,23,17,15,14.00
2009,02,23,17,16,14.00
2009,02,23,17,17,14.00
2009,02,23,17,18,14.00
2009,02,23,17,19,14.00
2009,02,23,17,20,14.00
2009,02,23,17,21,14.00
2009,02,23,17,22,15.90
2009,02,23,17,23,16.00
2009,02,23,17,24,16.00
2009,02,23,17,25,16.00
2009,02,23,17,26,16.00
2009,02,23,17,27,16.00